When you browse on this site, cookies collect data to enhance your experience and personalize the content and advertising you see.
Visit our Privacy Policy to learn more. By continuing to use the site, you agree to this use of cookies and data.
  • în România
  • Lista ţărilor
  • Pe 7 zile
  • Temperatura apei
  • Hartă satelitară
  • Meteo pe hartă
  • Widget-uri
  • user-avatar
    Intrare

    Meteo pe oră la Sumgait

    Astăzi, 19 Aprilie, Vineri

    Timp Temperatura Precipitaţii Vânt Presiune Umiditate
    00:00 +5°C° 0 mm 8 m/s 742 mmHg 72%
    01:00 +5°C° 0 mm 8 m/s 742 mmHg 73%
    02:00 +5°C° 0 mm 8 m/s 742 mmHg 74%
    03:00 +4°C° 0 mm 7 m/s 742 mmHg 75%
    04:00 +4°C° 0 mm 7 m/s 742 mmHg 75%
    05:00 +4°C° 0 mm 7 m/s 742 mmHg 76%
    06:00 +4°C° 0 mm 7 m/s 742 mmHg 76%
    07:00 +4°C° 0 mm 7 m/s 742 mmHg 75%
    08:00 +5°C° 0 mm 8 m/s 742 mmHg 75%
    09:00 +5°C° 0 mm 8 m/s 742 mmHg 74%
    10:00 +5°C° 0 mm 8 m/s 742 mmHg 73%
    11:00 +5°C° 0 mm 8 m/s 742 mmHg 72%
    12:00 +6°C° 0 mm 8 m/s 742 mmHg 72%
    13:00 +6°C° 0 mm 8 m/s 742 mmHg 72%
    14:00 +5°C° 0 mm 8 m/s 742 mmHg 73%
    15:00 +5°C° 0 mm 8 m/s 742 mmHg 74%
    16:00 +5°C° 0 mm 9 m/s 742 mmHg 74%
    17:00 +5°C° 0 mm 9 m/s 742 mmHg 74%
    18:00 +3°C° 0 mm 10 m/s 742 mmHg 75%
    19:00 +3°C° 0.1 mm 9 m/s 742 mmHg 75%
    20:00 +3°C° 0.1 mm 9 m/s 743 mmHg 75%
    21:00 +3°C° 0.1 mm 9 m/s 743 mmHg 75%
    22:00 +3°C° 0.5 mm 9 m/s 743 mmHg 76%
    23:00 +3°C° 0.5 mm 9 m/s 743 mmHg 76%

    Mâine, 20 Aprilie, Sâmbătă

    Timp Temperatura Precipitaţii Vânt Presiune Umiditate
    00:00 +2°C° 0.5 mm 9 m/s 742 mmHg 76%
    01:00 +2°C° 0.1 mm 10 m/s 742 mmHg 77%
    02:00 +2°C° 0.1 mm 10 m/s 742 mmHg 77%
    03:00 +2°C° 0.1 mm 10 m/s 741 mmHg 77%
    04:00 +2°C° 0.3 mm 10 m/s 741 mmHg 77%
    05:00 +2°C° 0.3 mm 10 m/s 741 mmHg 77%
    06:00 +2°C° 0.3 mm 11 m/s 741 mmHg 77%
    07:00 +2°C° 0.6 mm 10 m/s 742 mmHg 77%
    08:00 +2°C° 0.6 mm 10 m/s 742 mmHg 76%
    09:00 +3°C° 0.6 mm 9 m/s 742 mmHg 75%
    10:00 +3°C° 0.6 mm 9 m/s 742 mmHg 74%
    11:00 +3°C° 0.6 mm 9 m/s 742 mmHg 72%
    12:00 +5°C° 0.6 mm 9 m/s 743 mmHg 71%
    13:00 +5°C° 0.1 mm 9 m/s 743 mmHg 69%
    14:00 +6°C° 0.1 mm 9 m/s 743 mmHg 68%
    15:00 +6°C° 0.1 mm 9 m/s 742 mmHg 66%
    16:00 +6°C° 0 mm 9 m/s 743 mmHg 68%
    17:00 +5°C° 0 mm 9 m/s 743 mmHg 70%
    18:00 +5°C° 0 mm 8 m/s 743 mmHg 72%
    19:00 +5°C° 0 mm 8 m/s 744 mmHg 74%
    20:00 +4°C° 0 mm 7 m/s 744 mmHg 76%
    21:00 +4°C° 0 mm 6 m/s 745 mmHg 77%
    22:00 +4°C° 0 mm 6 m/s 745 mmHg 78%
    23:00 +3°C° 0 mm 5 m/s 744 mmHg 79%

    Poimâine, 21 Aprilie, Duminică

    Timp Temperatura Precipitaţii Vânt Presiune Umiditate
    00:00 +4°C° 0 mm 4 m/s 744 mmHg 80%
    01:00 +4°C° 0 mm 4 m/s 744 mmHg 80%
    02:00 +4°C° 0 mm 4 m/s 744 mmHg 80%
    03:00 +4°C° 0 mm 4 m/s 744 mmHg 80%
    04:00 +4°C° 0 mm 4 m/s 744 mmHg 80%
    05:00 +4°C° 0 mm 4 m/s 744 mmHg 79%
    06:00 +4°C° 0 mm 4 m/s 744 mmHg 79%
    07:00 +5°C° 0 mm 4 m/s 744 mmHg 73%
    08:00 +6°C° 0 mm 4 m/s 745 mmHg 67%
    09:00 +8°C° 0 mm 5 m/s 745 mmHg 61%
    10:00 +8°C° 0 mm 4 m/s 745 mmHg 59%
    11:00 +10°C° 0 mm 4 m/s 745 mmHg 57%
    12:00 +11°C° 0 mm 4 m/s 745 mmHg 54%
    13:00 +11°C° 0 mm 4 m/s 744 mmHg 55%
    14:00 +11°C° 0 mm 4 m/s 744 mmHg 56%
    15:00 +10°C° 0 mm 5 m/s 744 mmHg 57%
    16:00 +9°C° 0 mm 5 m/s 744 mmHg 60%
    17:00 +9°C° 0 mm 5 m/s 744 mmHg 63%
    18:00 +8°C° 0 mm 5 m/s 744 mmHg 66%
    19:00 +8°C° 0 mm 4 m/s 745 mmHg 69%
    20:00 +7°C° 0 mm 4 m/s 745 mmHg 71%
    21:00 +7°C° 0 mm 4 m/s 745 mmHg 74%
    22:00 +8°C° 0 mm 3 m/s 745 mmHg 75%
    23:00 +7°C° 0 mm 3 m/s 745 mmHg 76%

    22 Aprilie, Luni

    Timp Temperatura Precipitaţii Vânt Presiune Umiditate
    00:00 +7°C° 0 mm 3 m/s 745 mmHg 77%
    01:00 +7°C° 0 mm 3 m/s 744 mmHg 77%
    02:00 +6°C° 0 mm 4 m/s 744 mmHg 78%
    03:00 +5°C° 0 mm 4 m/s 744 mmHg 78%
    04:00 +5°C° 0 mm 5 m/s 744 mmHg 77%
    05:00 +6°C° 0 mm 5 m/s 744 mmHg 75%
    06:00 +5°C° 0 mm 6 m/s 744 mmHg 73%
    07:00 +6°C° 0 mm 7 m/s 744 mmHg 70%
    08:00 +7°C° 0 mm 8 m/s 744 mmHg 66%
    09:00 +8°C° 0 mm 9 m/s 744 mmHg 62%
    10:00 +8°C° 0 mm 10 m/s 744 mmHg 60%
    11:00 +9°C° 0 mm 10 m/s 744 mmHg 58%
    12:00 +9°C° 0 mm 11 m/s 744 mmHg 56%
    13:00 +9°C° 0 mm 11 m/s 743 mmHg 56%
    14:00 +9°C° 0 mm 12 m/s 743 mmHg 57%
    15:00 +9°C° 0 mm 12 m/s 743 mmHg 57%
    16:00 +8°C° 0 mm 13 m/s 743 mmHg 57%
    17:00 +8°C° 0 mm 13 m/s 743 mmHg 58%
    18:00 +8°C° 0 mm 13 m/s 742 mmHg 58%
    19:00 +7°C° 0.1 mm 13 m/s 743 mmHg 57%
    20:00 +7°C° 0.1 mm 13 m/s 743 mmHg 56%
    21:00 +7°C° 0.1 mm 12 m/s 744 mmHg 55%
    22:00 +7°C° 0.1 mm 12 m/s 744 mmHg 53%
    23:00 +7°C° 0.1 mm 12 m/s 744 mmHg 52%

    23 Aprilie, Marţi

    Timp Temperatura Precipitaţii Vânt Presiune Umiditate
    00:00 +7°C° 0.1 mm 12 m/s 744 mmHg 50%
    01:00 +7°C° 0 mm 11 m/s 744 mmHg 49%
    02:00 +7°C° 0 mm 11 m/s 744 mmHg 47%
    03:00 +7°C° 0 mm 11 m/s 744 mmHg 46%
    04:00 +7°C° 0 mm 11 m/s 744 mmHg 47%
    05:00 +7°C° 0 mm 10 m/s 745 mmHg 48%
    06:00 +7°C° 0 mm 10 m/s 745 mmHg 50%
    07:00 +8°C° 0 mm 10 m/s 746 mmHg 48%
    08:00 +9°C° 0 mm 11 m/s 747 mmHg 46%
    09:00 +9°C° 0 mm 11 m/s 747 mmHg 44%
    10:00 +11°C° 0 mm 10 m/s 747 mmHg 42%
    11:00 +12°C° 0 mm 10 m/s 747 mmHg 40%
    12:00 +12°C° 0 mm 10 m/s 747 mmHg 39%
    13:00 +12°C° 0 mm 9 m/s 747 mmHg 41%
    14:00 +12°C° 0 mm 8 m/s 747 mmHg 42%
    15:00 +12°C° 0 mm 8 m/s 747 mmHg 44%
    16:00 +11°C° 0 mm 7 m/s 748 mmHg 46%
    17:00 +10°C° 0 mm 7 m/s 748 mmHg 48%
    18:00 +10°C° 0 mm 7 m/s 748 mmHg 50%
    19:00 +9°C° 0 mm 6 m/s 748 mmHg 52%
    20:00 +9°C° 0 mm 6 m/s 749 mmHg 54%
    21:00 +8°C° 0 mm 6 m/s 749 mmHg 55%
    22:00 +8°C° 0 mm 5 m/s 749 mmHg 55%
    23:00 +8°C° 0 mm 5 m/s 749 mmHg 55%

    24 Aprilie, Miercuri

    Timp Temperatura Precipitaţii Vânt Presiune Umiditate
    00:00 +8°C° 0 mm 4 m/s 749 mmHg 54%
    01:00 +8°C° 0 mm 4 m/s 749 mmHg 54%
    02:00 +7°C° 0 mm 4 m/s 748 mmHg 54%
    03:00 +8°C° 0 mm 3 m/s 748 mmHg 54%
    04:00 +8°C° 0 mm 3 m/s 749 mmHg 53%
    05:00 +8°C° 0 mm 3 m/s 749 mmHg 52%
    06:00 +8°C° 0 mm 3 m/s 749 mmHg 51%
    07:00 +9°C° 0 mm 3 m/s 749 mmHg 47%
    08:00 +10°C° 0 mm 3 m/s 749 mmHg 42%
    09:00 +11°C° 0 mm 3 m/s 749 mmHg 38%
    10:00 +12°C° 0 mm 3 m/s 749 mmHg 38%
    11:00 +13°C° 0 mm 3 m/s 749 mmHg 38%
    12:00 +13°C° 0 mm 3 m/s 749 mmHg 38%
    13:00 +13°C° 0 mm 3 m/s 748 mmHg 38%
    14:00 +13°C° 0 mm 3 m/s 748 mmHg 38%
    15:00 +13°C° 0 mm 3 m/s 748 mmHg 39%
    16:00 +13°C° 0 mm 3 m/s 748 mmHg 39%
    17:00 +12°C° 0 mm 3 m/s 748 mmHg 39%
    18:00 +12°C° 0 mm 3 m/s 748 mmHg 40%
    19:00 +12°C° 0 mm 2 m/s 748 mmHg 42%
    20:00 +12°C° 0 mm 2 m/s 748 mmHg 45%
    21:00 +11°C° 0 mm 1 m/s 748 mmHg 48%
    22:00 +10°C° 0 mm 2 m/s 747 mmHg 50%
    23:00 +10°C° 0 mm 2 m/s 747 mmHg 52%
    Arată mai mult